Regional Weather Roundup
Issued by NWS Kansas City/Pleasant Hill, MO

Home | Current Version | Previous Version | Graphics & Text | Print | Product List | Glossary Off
Versions: 1 2 3 4 5 6 7 8 9 10 11 12 13 14 15 16 17 18 19 20 21 22 23 24 25 26 27 28 29 30 31 32 33 34 35 36 37 38 39 40 41 42 43 44 45 46 47 48 49 50

000
ASUS43 KEAX 011604
RWREAX

WEATHER ROUNDUP FOR EASTERN KANSAS AND NORTHWEST MISSOURI
NATIONAL WEATHER SERVICE KANSAS CITY/PLEASANT HILL MO
1100 AM CDT FRI AUG 01 2014

KSZ040-057-103>105-MOZ028-029-037-043-011700-
...KANSAS CITY METROPOLITAN AREA...

CITY           SKY/WX    TMP DP  RH WIND       PRES   REMARKS
K.C. INTL      PTSUNNY   75  63  66 E9        30.09S
K.C. DOWNTOWN  MOSUNNY   75  63  66 E8        30.08S
LEES SUMMIT    CLOUDY    74  62  66 E8        30.10S
OLATHE - IXD   MOSUNNY   78  61  55 VRB3      30.10R
OLATHE - OJC   CLOUDY    75  63  66 E5        30.09R
LAWRENCE       SUNNY     78  63  59 SE6       30.08S

$$

MOZ001>008-011>017-020>025-030>033-038>040-044>046-053-054-011700-
...NORTHERN AND CENTRAL MISSOURI...

CITY           SKY/WX    TMP DP  RH WIND       PRES   REMARKS
ST. JOSEPH     MOSUNNY   76  66  71 E5        30.08S
MOSBY          MOSUNNY   73  61  64 E7        30.09S
WHITEMAN AFB   NOT AVBL
CLINTON        PTSUNNY   73  66  78 CALM      30.10S
SEDALIA        LGT RAIN  71  64  78 N5        30.11S
WARSAW         NOT AVBL
MARSHALL       CLOUDY    72  68  88 CALM      30.12S
CHILLICOTHE      N/A     70  62  76 CALM      30.12R
KIRKSVILLE     PTSUNNY   76  61  59 NW8       30.12R

$$

MOZ041-047>049-056>058-063>065-088>090-097-011700-
...EASTERN AND SOUTHERN MISSOURI...

CITY           SKY/WX    TMP DP  RH WIND       PRES   REMARKS
ST. LOUIS INTL MOSUNNY   83  63  50 VRB5      30.10R
SPIRIT OF STL  MOSUNNY   80  64  58 NW3       30.08S
COLUMBIA       MOSUNNY   78  62  57 N8        30.11R
JEFFERSON CITY MOSUNNY   78  66  66 CALM      30.09R
HANNIBAL       CLOUDY    79  57  47 CALM      30.10S
ROLLA          SUNNY     79  62  56 VRB6      30.10S
LEBANON        MOSUNNY   79  63  57 CALM      30.12S
OSAGE BEACH    SUNNY     79  64  61 S5        30.10S
SPRINGFIELD    CLOUDY    68  65  90 CALM      30.13R
BRANSON        PTSUNNY   77  66  69 CALM      30.13S
NEVADA         MOSUNNY   79  68  69 CALM      30.11S
JOPLIN         PTSUNNY   74  66  76 S3        30.12S
WEST PLAINS    PTSUNNY   72  63  73 SE3       30.14R
MALDEN         SUNNY     79  66  65 CALM      30.10S

$$

IAZ060-094-KSZ022-034>040-054-083-096-NEZ052-066-093-011700-
...KANSAS...SOUTHEAST NEBRASKA AND IOWA...

CITY           SKY/WX    TMP DP  RH WIND       PRES   REMARKS
TOPEKA         MOSUNNY   81  63  54 S8        30.06F
MANHATTAN      SUNNY     79  60  52 W7        30.04S
EMPORIA        SUNNY     82  60  47 S12       30.07F
CHANUTE        SUNNY     78  66  66 SE5       30.10S
WICHITA        MOSUNNY   81  57  43 SW12      30.08R
OMAHA          PTSUNNY   76  62  62 VRB5      30.09S
LINCOLN        SUNNY     77  60  55 NE9       30.08S
FALLS CITY     CLOUDY    78  64  61 SE12      30.06R HAZE
LAMONI         MOSUNNY   76  61  59 VRB5      30.10F
DES MOINES     MOSUNNY   78  61  55 CALM      30.09S

$$




USA.gov is the U.S. government's official web portal to all federal, state and local government web resources and services.